Antonio Macea, Cuba

12:08 AM CST on December 15, 2018 (GMT -0500)
Antonio Macea

Weather History for 78264 - October, 2018

Change the Weather History Date:

Thursday, October 11, 2018

  Actual Average Record
Temperature  
Mean Temperature 80 °F -  
Max Temperature 88 °F 84 °F - ()
Min Temperature 71 °F 72 °F - ()
Cooling Degree Days 14    
Growing Degree Days 30 (Base 50)    
Moisture  
Dew Point 70 °F    
Average Humidity 75    
Maximum Humidity 88    
Minimum Humidity 54    
Precipitation  
Precipitation 0.00 in - - ()
Sea Level Pressure  
Sea Level Pressure 29.91 in    
Wind  
Wind Speed 5 mph ()    
Max Wind Speed 8 mph    
Max Gust Speed -    
Visibility 5.6 miles    
Events      
T = Trace of Precipitation, MM = Missing Value Source: Averaged Metar Reports

Daily Weather History Graph

Daily Weather History Graph

Search for Another Location

Airport or City:

Astronomy

Oct. 11, 2018 Rise Set
Actual Time 6:56 AM CDT 6:42 PM CDT
Civil Twilight 6:34 AM CDT 7:05 PM CDT
Nautical Twilight 6:09 AM CDT 7:30 PM CDT
Astronomical Twilight 5:43 AM CDT 7:56 PM CDT
Moon 9:12 AM CDT (10/11) 8:54 PM CDT (10/11)
Length of Visible Light 12h 30m
Length of Day
11h 46m
Waxing Crescent, 8% of the Moon is Illuminated
Oct 11
Waxing Crescent
Oct 16
First Quarter
Oct 24
Full
Oct 31
Last Quarter
Nov 7
New

Hourly Weather History & Observations

Time (CDT) Temp. Heat Index Dew Point Humidity Pressure Visibility Wind Dir Wind Speed Gust Speed Precip Events Conditions
12:50 AM 73.4 °F - 69.8 °F 88% 29.92 in 5.6 mi North 5.8 mph - N/A   Partly Cloudy
1:50 AM 73.4 °F - 69.8 °F 88% 29.92 in 5.6 mi North 4.6 mph - N/A   Partly Cloudy
2:00 AM 73 °F - 69 °F 84% 29.92 in 6 mi North 4.5 mph - -   Scattered Clouds
2:51 AM 73.4 °F - 68.0 °F 83% 29.89 in 5.6 mi North 5.8 mph - N/A   Partly Cloudy
3:50 AM 73.4 °F - 68.0 °F 83% 29.89 in 5.6 mi North 4.6 mph - N/A   Partly Cloudy
4:50 AM 71.6 °F - 68.0 °F 88% 29.89 in 5.6 mi North 4.6 mph - N/A   Partly Cloudy
5:00 AM 72 °F - 68 °F 84% 29.89 in 6 mi North 4.5 mph - -   Scattered Clouds
5:50 AM 71.6 °F - 68.0 °F 88% 29.86 in 5.6 mi North 5.8 mph - N/A   Partly Cloudy
6:54 AM 71.6 °F - 68.0 °F 88% 29.89 in 5.6 mi NNE 4.6 mph - N/A   Partly Cloudy
7:51 AM 73.4 °F - 68.0 °F 83% 29.92 in 5.6 mi NE 4.6 mph - N/A   Scattered Clouds
8:00 AM 73 °F - 69 °F 82% 29.93 in 6 mi NE 4.5 mph - -   Haze
8:51 AM 82.4 °F 87.2 °F 71.6 °F 70% 29.95 in 5.6 mi Variable 1.2 mph - N/A   Scattered Clouds
9:51 AM 80.6 °F 84.6 °F 71.6 °F 74% 29.95 in 5.6 mi SW 4.6 mph - N/A   Scattered Clouds
10:51 AM 82.4 °F 87.2 °F 71.6 °F 70% 29.95 in 5.6 mi SW 6.9 mph - N/A   Scattered Clouds
11:00 AM 83 °F - 71 °F 60% 29.96 in 6 mi SW 6.7 mph - -   Haze
11:51 AM 84.2 °F 89.6 °F 71.6 °F 66% 29.95 in 5.6 mi WSW 8.1 mph - N/A   Scattered Clouds
12:51 PM 86.0 °F 91.8 °F 71.6 °F 62% 29.92 in 5.6 mi WSW 8.1 mph - N/A   Scattered Clouds
1:51 PM 84.2 °F 88.4 °F 69.8 °F 62% - 5.6 mi SSW 6.9 mph - N/A   Scattered Clouds
2:00 PM 84 °F - 70 °F 54% 29.91 in 6 mi SSW 6.7 mph - -   Partly Cloudy
2:51 PM 82.4 °F 86.3 °F 69.8 °F 66% - 5.6 mi SW 4.6 mph - N/A   Scattered Clouds
3:50 PM 82.4 °F 86.3 °F 69.8 °F 66% 29.86 in 5.6 mi SSW 5.8 mph - N/A   Scattered Clouds
4:51 PM 84.2 °F 88.4 °F 69.8 °F 62% 29.86 in 5.6 mi SW 6.9 mph - N/A   Scattered Clouds
5:00 PM 84 °F - 70 °F 54% 29.88 in 6 mi SW 6.7 mph - -   Haze
5:50 PM 82.4 °F 86.3 °F 69.8 °F 66% 29.89 in 5.6 mi SSW 4.6 mph - N/A   Scattered Clouds
6:53 PM 80.6 °F 83.9 °F 69.8 °F 70% 29.89 in 5.0 mi South 4.6 mph - N/A   Scattered Clouds
7:50 PM 78.8 °F - 69.8 °F 74% 29.89 in 5.0 mi Variable 2.3 mph - N/A   Scattered Clouds
8:00 PM 79 °F - 70 °F 68% 29.91 in 6 mi NNE 2.2 mph - -   Haze
8:51 PM 77.0 °F - 69.8 °F 78% 29.92 in 5.0 mi NE 4.6 mph - N/A   Scattered Clouds
9:50 PM 75.2 °F - 69.8 °F 83% 29.92 in 5.0 mi NE 4.6 mph - N/A   Scattered Clouds
10:50 PM 75.2 °F - 69.8 °F 83% 29.95 in 5.0 mi North 4.6 mph - N/A   Scattered Clouds
11:00 PM 75 °F - 70 °F 81% 29.95 in 6 mi North 4.5 mph - -   Haze
11:51 PM 75.2 °F - 69.8 °F 83% 29.95 in 5.0 mi North 5.8 mph - N/A   Scattered Clouds